Indonesia Terpercaya"/> Lidewapoker | Agen POKER online Indonesia Terpercaya

Jackpot

Texas Poker Multi Jackpot System

Kini Telah hadir Jackpot SUPER ROYAL FLUSH

Kini Telah hadir Jackpot 2000 (khusus table VIP keatas).

Ikutilah global jackpot yang tersedia di system kami, dengan system jackpot terbaru dan pertama di indonesia, anda dapat membeli jackpot dengan harga 100 rupiah saja dan menangkan hadiahnya hingga puluhan juta rupiah.

Jackpot bukanlah suatu keharusan untuk dibeli, namun kami memberikan suatu fitur tambahan untuk member tercinta dari www.lidw.pw.

Terdapat tiga pilihan harga jackpot yang bisa anda beli yaitu :100,500,1000 dan 2000(khusus table VIP Keatas) rupiah.

Hadiah dari Multi jackpot system www.lidw.pw

  1. full house x 10 harga jackpot yang anda beli.
      (contoh:anda membeli 1000 maka:1000 X10 = 10.000)
  2. four of kind x 250 harga jackpot yang anda beli
      (contoh:anda membeli 1000 maka:1000 X250 = 250.000)
  3. Straight flush x 1200
      (contoh:anda membeli 1000 maka:1000 X1200 = 1.200.000)
  4. Royal flush x 10000 harga jackpot yang anda beli
      (contoh:anda membeli 1000 maka:1000 X10000 = 10.000.000)
  5. SUPER ROYAL FLUSH x 30000 harga jackpot yang anda beli
      (contoh:anda membeli 1000 maka:1000 X30000 = 30.000.000)

Kondisi kartu

  1. full house adalah kondisi kartu dimana kartu anda dan kartu tengah dengan total 7 kartu bisa mendapatkan nilai 5 kartu dengan kombinasi 1 tris(three of kind) dan 1 pair, contoh 3 kartu 10 dan 2 kartu 5
  2. Four of kind adalah kondisi kartu dimana kartu anda dan kartu tengah dengan total 7 kartu bisa mendapatkan nilai 5 kartu dengan kombinasi 4 kartu yang sama jumlah dan 1 kartu apapun juga contoh anda mendapatkan 4 buah kartu angka 3 dan 1 kartu apapun.
  3. Staright flush adalah kondisi kartu dimana kartu anda dan kartu tengah dengan total 7 kartu bisa mendapatkan nilai 5 kartu dengan kombinasi seri / staright dengan kembang yang sama contoh : urutan kartu dari angka 5, 6, 7, 8 , 9 10 dengan kembang yg sama misalnya as hati
  4. Royal flush adalah kondisi kartu dimana kartu anda dan kartu tengah dengan total 7 kartu bisa mendapatkan nilai 5 kartu dengan kombinasi seri / staright dengan kembang yang sama tetapi kartu tersebut haruslah dimulai dari 10. contoh 10, Queen, Jack, King dan aces dengan kembang yang sama
  5. Super Royal flush adalah kondisi kartu dimana Kedua kartu anda digabung dengan 3 kartu pertama meja haruslah royal flush. contoh kartu anda 10,Queen kembang sama dan 3 kartu pertama meja adalah Jack, King dan aces dengan kembang yang sama

Demikian adalah penjelasan dari Multi Jackpot www.lidw.pw terima kasih dan selamat bermain salam hoki dari kami

Texas Poker Jackpot Winner

TOP SUPER ROYAL FLUSH
No.TanggalNamaPriceWin
122/08 13:38WEIKUO17Super Royal flush30,000,000
222/08 12:48ANDRIYODHASuper Royal flush30,000,000
322/08 12:07ALTI01Super Royal flush15,000,000
422/08 03:51IDNGRELL41Super Royal flush30,000,000
522/08 00:32RUM4NTO9Super Royal flush6,000,000
TOP ROYAL FLUSH
No.TanggalNamaPriceWin
122/08 14:58ANAAAAARoyal flush20,000,000
222/08 14:48KADALL1234Royal flush1,000,000
322/08 14:41D074924DRoyal flush2,000,000
422/08 14:30NABS24Royal flush20,000,000
522/08 14:26DARWAN123Royal flush5,000,000
TOP STRAIGHT FLUSH
No.TanggalNamaPriceWin
122/08 15:01FISSSStraight Flush240,000
222/08 15:01SEMANIU9Straight Flush600,000
322/08 15:01ABLOODStraight Flush1,200,000
422/08 14:56DWBT6667Straight Flush120,000
522/08 14:54MISTIC90Straight Flush1,200,000
LATEST JACKPOT
No.TanggalNamaPriceWin
122/08 15:01ARDIJPFull House5,000
222/08 15:01FISSSStraight Flush240,000
322/08 15:01FDDE9616Full House5,000
422/08 15:01S1BE2EHQ43Full House5,000
522/08 15:01AHMAD2Full House5,000
622/08 15:01IYEK775Full House5,000
722/08 15:01ZEKICENFull House5,000
822/08 15:01IYADON99Full House5,000
922/08 15:01DUITQU999Full House2,000
1022/08 15:01SUNTINGFull House5,000
1122/08 15:01STELA90Four Of A Kind250,000
1222/08 15:01ABCFull House1,000
1322/08 15:01AGGXTC12Full House2,000
1422/08 15:01MIO85Full House2,000
1522/08 15:01CIOMAS77Four Of A Kind500,000
1622/08 15:01JABRIKCOFull House5,000
1722/08 15:01ANAMOMAYFull House10,000
1822/08 15:01OZSGTXFull House1,000
1922/08 15:01FIXED12Full House5,000
2022/08 15:01ULLY_QFull House10,000
2122/08 15:01ASHDAN12Full House20,000
2222/08 15:01H4UFCGW13DFull House2,000
2322/08 15:01MATGOBAY73Full House10,000
2422/08 15:01EPOYY19Full House10,000
2522/08 15:01TEMPURUNGFull House2,000
2622/08 15:01Y1999Full House1,000
2722/08 15:01SEMANIU9Straight Flush600,000
2822/08 15:01C3HM4RFull House2,000
2922/08 15:01JOCAYFull House2,000
3022/08 15:01MIXJP234Full House10,000
3122/08 15:01KEANE_80Full House10,000
3222/08 15:01ABLOODStraight Flush1,200,000
3322/08 15:01SIIKUAMPFull House1,000
3422/08 15:01OPBF9JTBG3Full House2,000
3522/08 15:01JOSHHFull House1,000
3622/08 15:01JIBRIEL23Four Of A Kind50,000
3722/08 15:00SEM0KFull House2,000
3822/08 15:00A9DA1DE4Full House2,000
3922/08 15:00ELANG464Full House5,000
4022/08 15:00CEMBEN98Full House5,000
4122/08 15:00DWBTT7771Full House10,000
4222/08 15:00PANTATZ88Full House2,000
4322/08 15:00ONEPIECE95Full House2,000
4422/08 15:00SRWJY12BYSFull House5,000
4522/08 15:00BUTUHUANGFull House2,000
4622/08 15:00NEPT12Full House5,000
4722/08 15:00ZIQRYFull House5,000
4822/08 15:00IONZC005GZFull House20,000
4922/08 15:00JAGALFull House5,000
5022/08 15:00CILES011Full House5,000

Domino Multi Jackpot System

Ikutilah global jackpot yang tersedia di system kami, dengan system jackpot terbaru dan pertama di indonesia, anda dapat membeli jackpot dengan harga 100 rupiah saja dan menangkan hadiahnya hingga puluhan juta rupiah.

Jackpot bukanlah suatu keharusan untuk dibeli, namun kami memberikan suatu fitur tambahan untuk member tercinta dari www.lidw.pw.

Terdapat tiga pilihan harga jackpot yang bisa anda beli yaitu :100,500 dan 1000 rupiah.

Hadiah dari Multi jackpot system www.lidw.pw

  1. Murni Kecil x 50 harga jackpot yang anda beli.
      (contoh:anda membeli 1000 maka:1000 X 50 = 50.000)
  2. Murni Besar x 50 harga jackpot yang anda beli
      (contoh:anda membeli 1000 maka:1000 X 50 = 50.000)
  3. BALAK x 100 harga jackpot yang anda beli
      (contoh:anda membeli 1000 maka:1000 X 100 = 100.000)
  4. ENAM DEWA x 6666 harga jackpot yang anda beli
      (contoh:anda membeli 1000 maka:1000 X 6666 = 6.666.000)

Demikian adalah penjelasan dari Multi Jackpot www.lidw.pw terima kasih dan selamat bermain salam hoki dari kami

Domino Jackpot Winner

TOP ENAM DEWA
No.TanggalNamaPriceWin
122/08 14:38ZOKER05454murni enam666,600
222/08 09:42BEDJO121murni enam3,333,000
322/08 09:22ANA1303murni enam6,666,000
422/08 04:30IONKJ13A7Fmurni enam3,333,000
522/08 04:29SANERINmurni enam3,333,000
TOP BALAK
No.TanggalNamaPriceWin
122/08 14:55DAG1NGRWbalak100,000
222/08 14:54E3FB7B36balak100,000
322/08 14:53BRUL_BROLbalak100,000
422/08 14:51NOVALBAD33balak50,000
522/08 14:50NAIYA007balak100,000
LATEST JACKPOT
No.TanggalNamaPriceWin
122/08 14:59DM210556murni kecil50,000
222/08 14:59B5D11murni kecil50,000
322/08 14:58DEGIROL99murni kecil50,000
422/08 14:58PLOSO99murni kecil50,000
522/08 14:57EZRAPAKILmurni kecil25,000
622/08 14:55TOFIK012murni besar25,000
722/08 14:55DAG1NGRWbalak100,000
822/08 14:55SUHUTNIHUTmurni kecil25,000
922/08 14:55TAHU_008murni kecil50,000
1022/08 14:54B5D11murni kecil25,000
1122/08 14:54D79156BTmurni kecil50,000
1222/08 14:54STARGOmurni kecil50,000
1322/08 14:54Z3V3N88murni besar50,000
1422/08 14:54TIMRAH90murni besar25,000
1522/08 14:54E3FB7B36balak100,000
1622/08 14:53RAKENJOGmurni kecil5,000
1722/08 14:53BRUL_BROLbalak100,000
1822/08 14:53HOKCAY1933murni besar25,000
1922/08 14:53ICHAL46murni kecil50,000
2022/08 14:52GOE1NB5OZXmurni besar50,000
2122/08 14:52BRUL_BROLmurni kecil50,000
2222/08 14:52SEKOPOKER0murni besar25,000
2322/08 14:52SAVARDAN67murni besar50,000
2422/08 14:51NOVALBAD33balak50,000
2522/08 14:51ATANGBEYEmurni kecil5,000
2622/08 14:51BLENDOT86murni besar25,000
2722/08 14:50NAIYA007balak100,000
2822/08 14:50BENY115murni kecil5,000
2922/08 14:50TERBUS89lucky9910,000
3022/08 14:50Z3V3N88murni besar50,000
3122/08 14:50Z4MWR0W0F8murni besar5,000
3222/08 14:49DODIT45murni besar50,000
3322/08 14:49BEDUARmurni besar50,000
3422/08 14:49IYAN999murni besar50,000
3522/08 14:49BIJIKANCANmurni besar25,000
3622/08 14:47DWBTUNCI4balak100,000
3722/08 14:47ASETHEPE2Kbalak10,000
3822/08 14:47AICXASCBmurni besar5,000
3922/08 14:46ULUK45balak100,000
4022/08 14:46JIHDW15HYHmurni kecil5,000
4122/08 14:45VHY86murni kecil50,000
4222/08 14:45SIDAURUK17lucky992,500
4322/08 14:44LIKUNKUbalak50,000
4422/08 14:44KIPASmurni besar5,000
4522/08 14:44BEDUARmurni besar50,000
4622/08 14:44GOMBUL1234murni kecil25,000
4722/08 14:43RIAN12345murni besar50,000
4822/08 14:43CD1B93D2balak50,000
4922/08 14:42BRAC8H2NOXmurni besar50,000
5022/08 14:42ABB729DAmurni kecil50,000

Ceme Multi Jackpot System

Jackpot dilihat dari gabungan kartu pemain dengan kartu bandar. Bandar harus membeli jackpot sebanyak jumlah player yang sedang duduk. Sebagai contoh bila terdapat 3 pemain duduk bermain, dan bandar memutuskan untuk membeli jackpot Rp 1.000, maka pada periode tersebut bandar akan membeli jackpot sebanyak 3xRp1.000 = Rp3.000.

Jackpot bukanlah suatu keharusan untuk dibeli, namun kami memberikan suatu fitur tambahan untuk member tercinta dari www.lidw.pw.

Terdapat tiga pilihan harga jackpot yang bisa anda beli yaitu :100,500 dan 1000 rupiah.

Hadiah dari Multi jackpot system www.lidw.pw

  1. Murni Kecil x 50 harga jackpot yang anda beli.
      (contoh:anda membeli 1000 maka:1000 X 50 = 50.000)
  2. Murni Besar x 50 harga jackpot yang anda beli
      (contoh:anda membeli 1000 maka:1000 X 50 = 50.000)
  3. BALAK x 200 harga jackpot yang anda beli
      (contoh:anda membeli 1000 maka:1000 X 200 = 200.000)
  4. ENAM DEWA x 6666 harga jackpot yang anda beli
      (contoh:anda membeli 1000 maka:1000 X 6666 = 6.666.000)

Demikian adalah penjelasan dari Multi Jackpot www.lidw.pw terima kasih dan selamat bermain salam hoki dari kami

Ceme Jackpot Winner

TOP ENAM DEWA
No.TanggalNamaPriceWin
122/08 14:48TORRY81murni enam6,666,000
222/08 14:48RAYHAN92murni enam3,333,000
322/08 14:40M121MCmurni enam6,666,000
422/08 14:38BOLA_HITAMmurni enam6,666,000
522/08 14:38ZAENNmurni enam666,600
TOP BALAK
No.TanggalNamaPriceWin
122/08 15:00IWAN007balak200,000
222/08 14:59BKTARNS56balak200,000
322/08 14:59SENGKLANKbalak100,000
422/08 14:59JOESHUTAbalak100,000
522/08 14:59CETAR8888balak20,000
LATEST JACKPOT
No.TanggalNamaPriceWin
122/08 15:01KINOKATARAmurni kecil50,000
222/08 15:01CANDI956murni besar50,000
322/08 15:01CINTA808murni besar5,000
422/08 15:01KANCABORE7murni kecil50,000
522/08 15:01ALIESYAmurni kecil5,000
622/08 15:01DANI1681murni kecil50,000
722/08 15:01JP66BOSmurni kecil50,000
822/08 15:01ARVINZAmurni kecil5,000
922/08 15:00GABOT25murni kecil50,000
1022/08 15:00BAJHAXmurni kecil50,000
1122/08 15:00GABOT25murni kecil50,000
1222/08 15:00AGUY12murni kecil50,000
1322/08 15:00ABDELJAYAmurni kecil50,000
1422/08 15:00ABDELJAYAmurni kecil50,000
1522/08 15:00SIFANY88murni kecil5,000
1622/08 15:00IUJOISmurni kecil50,000
1722/08 15:00IWAN007balak200,000
1822/08 15:00DANI1681murni besar50,000
1922/08 15:00PREMAN_99murni kecil5,000
2022/08 15:00APARATCOK1murni kecil5,000
2122/08 15:00JOHNKADAL2murni kecil50,000
2222/08 15:00BEROK_09murni kecil5,000
2322/08 15:00ORTEGA8790murni besar50,000
2422/08 15:00AMAR123murni besar25,000
2522/08 15:00HENGKONGmurni besar50,000
2622/08 15:00ARCHER50murni kecil50,000
2722/08 15:00IWAN007murni kecil50,000
2822/08 15:00BDOL111murni kecil5,000
2922/08 14:59BKTARNS56balak200,000
3022/08 14:59BKTARNS56murni kecil50,000
3122/08 14:59GUS271murni kecil50,000
3222/08 14:59SEBER123murni kecil50,000
3322/08 14:59NONY2424murni kecil25,000
3422/08 14:59SENGKLANKbalak100,000
3522/08 14:59JOESHUTAbalak100,000
3622/08 14:59CETAR8888balak20,000
3722/08 14:59LB998848murni kecil50,000
3822/08 14:59KENZIERImurni kecil5,000
3922/08 14:59AAAALTTI11balak200,000
4022/08 14:58PAKBEEKBRObalak200,000
4122/08 14:58K1NGC4D3Lbalak20,000
4222/08 14:58TLDN22balak100,000
4322/08 14:58BODODO26murni kecil50,000
4422/08 14:58DEWADEWI96murni besar5,000
4522/08 14:58LB998848murni kecil50,000
4622/08 14:58RONALD505murni kecil5,000
4722/08 14:58GERANAT2murni besar50,000
4822/08 14:58IRULL07murni besar5,000
4922/08 14:58BKTARNS56murni kecil50,000
5022/08 14:58PREMAN_99murni besar5,000